"read_dt","SO2 (ppb)","flags","PMT voltage (V)","lamp voltage (V)","lamp intensity (Hz)","internal temp (C)","react chamber temp (C)","sample flow (l/min)","pres (mmHg)","SO2 bkg (ppb)","SO2 coefficient"
2015-10-11 00:00:00,1874E-3,5C000400,-0724,0825,12172,030.6,045.5,0.251,759.4,01.16,0.508
2015-10-11 00:01:00,2048E-3,5C000400,-0724,0826,12064,030.5,045.5,0.251,759.3,01.16,0.508
2015-10-11 00:02:00,1847E-3,5C000400,-0724,0826,12259,030.3,045.5,0.252,759.4,01.16,0.508
2015-10-11 00:03:00,1759E-3,5C000400,-0724,0826,12331,030.1,045.5,0.251,759.4,01.16,0.508
2015-10-11 00:04:00,1912E-3,5C000400,-0724,0826,12262,030.0,045.5,0.252,759.3,01.16,0.508
2015-10-11 00:05:00,1881E-3,5C000400,-0724,0825,12159,029.9,045.5,0.252,759.6,01.16,0.508
2015-10-11 00:06:00,1992E-3,5C000400,-0724,0825,12334,029.8,045.5,0.252,759.3,01.16,0.508
2015-10-11 00:07:00,1880E-3,5C000400,-0724,0826,12263,029.8,045.5,0.252,759.5,01.16,0.508
2015-10-11 00:08:00,1817E-3,5C000400,-0724,0825,12332,029.8,045.5,0.252,759.3,01.16,0.508
2015-10-11 00:09:00,1918E-3,5C000400,-0724,0825,12330,029.9,045.5,0.253,759.1,01.16,0.508
2015-10-11 00:10:00,1814E-3,5C000400,-0724,0825,12163,029.9,045.5,0.252,759.2,01.16,0.508
2015-10-11 00:11:00,1955E-3,5C000400,-0724,0826,12248,029.9,045.5,0.252,759.2,01.16,0.508
2015-10-11 00:12:00,1866E-3,5C000400,-0724,0825,12064,030.0,045.5,0.253,759.1,01.16,0.508
2015-10-11 00:13:00,2018E-3,5C000400,-0724,0825,12252,030.0,045.5,0.253,759.1,01.16,0.508
2015-10-11 00:14:00,1912E-3,5C000400,-0724,0825,12343,030.0,045.5,0.253,758.7,01.16,0.508
2015-10-11 00:15:00,1900E-3,5C000400,-0724,0826,12311,030.1,045.5,0.252,759.0,01.16,0.508
2015-10-11 00:16:00,1908E-3,5C000400,-0724,0826,12351,030.1,045.5,0.253,759.1,01.16,0.508
2015-10-11 00:17:00,2037E-3,5C000400,-0724,0825,12277,030.2,045.5,0.253,758.8,01.16,0.508
2015-10-11 00:18:00,1879E-3,5C000400,-0724,0825,12285,030.2,045.5,0.253,759.1,01.16,0.508
2015-10-11 00:19:00,1911E-3,5C000400,-0724,0826,12430,030.2,045.5,0.253,758.7,01.16,0.508
2015-10-11 00:20:00,1993E-3,5C000400,-0724,0825,12268,030.2,045.5,0.253,758.9,01.16,0.508
2015-10-11 00:21:00,1903E-3,5C000400,-0724,0826,12134,030.2,045.5,0.252,759.1,01.16,0.508
2015-10-11 00:22:00,1963E-3,5C000400,-0724,0826,12318,030.3,045.5,0.252,759.1,01.16,0.508
2015-10-11 00:23:00,2067E-3,5C000400,-0724,0825,12168,030.3,045.5,0.252,759.1,01.16,0.508
2015-10-11 00:24:00,1901E-3,5C000400,-0724,0825,12234,030.3,045.5,0.252,759.1,01.16,0.508
2015-10-11 00:25:00,1825E-3,5C000400,-0724,0825,12299,030.3,045.5,0.253,759.0,01.16,0.508
2015-10-11 00:26:00,1842E-3,5C000400,-0724,0826,12297,030.3,045.5,0.253,758.7,01.16,0.508
2015-10-11 00:27:00,1977E-3,5C000400,-0724,0826,12260,030.3,045.5,0.252,758.9,01.16,0.508
2015-10-11 00:28:00,1864E-3,5C000400,-0724,0825,12221,030.4,045.5,0.252,758.8,01.16,0.508
2015-10-11 00:29:00,1939E-3,5C000400,-0724,0825,12285,030.4,045.5,0.252,758.8,01.16,0.508
2015-10-11 00:30:00,1875E-3,5C000400,-0724,0826,12283,030.4,045.5,0.252,758.8,01.16,0.508
2015-10-11 00:31:00,1821E-3,5C000400,-0724,0826,12206,030.4,045.5,0.252,758.9,01.16,0.508
2015-10-11 00:32:00,1901E-3,5C000400,-0724,0826,12171,030.4,045.5,0.252,758.6,01.16,0.508
2015-10-11 00:33:00,1858E-3,5C000400,-0724,0827,12267,030.4,045.5,0.252,758.7,01.16,0.508
2015-10-11 00:34:00,1893E-3,5C000400,-0724,0826,12320,030.5,045.5,0.252,758.6,01.16,0.508
2015-10-11 00:35:00,1917E-3,5C000400,-0724,0826,12184,030.5,045.5,0.252,758.9,01.16,0.508
2015-10-11 00:36:00,1842E-3,5C000400,-0724,0825,12309,030.5,045.5,0.252,758.6,01.16,0.508
2015-10-11 00:37:00,1816E-3,5C000400,-0724,0826,12146,030.5,045.5,0.252,758.6,01.16,0.508
2015-10-11 00:38:00,1885E-3,5C000400,-0724,0825,12226,030.5,045.5,0.252,759.0,01.16,0.508
2015-10-11 00:39:00,1892E-3,5C000400,-0724,0826,12255,030.5,045.5,0.252,758.4,01.16,0.508
2015-10-11 00:40:00,1932E-3,5C000400,-0724,0825,12047,030.5,045.5,0.252,758.7,01.16,0.508
2015-10-11 00:41:00,1915E-3,5C000400,-0724,0826,12128,030.5,045.5,0.252,758.6,01.16,0.508
2015-10-11 00:42:00,1761E-3,5C000400,-0724,0825,12161,030.5,045.5,0.251,758.4,01.16,0.508
2015-10-11 00:43:00,1913E-3,5C000400,-0724,0826,12294,030.6,045.5,0.252,758.7,01.16,0.508
2015-10-11 00:44:00,1908E-3,5C000400,-0724,0826,12329,030.6,045.5,0.252,758.5,01.16,0.508
2015-10-11 00:45:00,1799E-3,5C000400,-0724,0826,12142,030.6,045.5,0.252,758.8,01.16,0.508
2015-10-11 00:46:00,1940E-3,5C000400,-0724,0826,12300,030.6,045.5,0.252,758.7,01.16,0.508
2015-10-11 00:47:00,1946E-3,5C000400,-0724,0825,12176,030.6,045.5,0.252,758.4,01.16,0.508
2015-10-11 00:48:00,1878E-3,5C000400,-0724,0826,12315,030.6,045.5,0.252,758.5,01.16,0.508
2015-10-11 00:49:00,1937E-3,5C000400,-0724,0826,12377,030.6,045.5,0.251,758.8,01.16,0.508
2015-10-11 00:50:00,1835E-3,5C000400,-0724,0826,12150,030.6,045.5,0.252,758.3,01.16,0.508
2015-10-11 00:51:00,1944E-3,5C000400,-0724,0826,12325,030.6,045.5,0.252,758.5,01.16,0.508
2015-10-11 00:52:00,2013E-3,5C000400,-0724,0825,12165,030.6,045.5,0.251,758.5,01.16,0.508
2015-10-11 00:53:00,2047E-3,5C000400,-0724,0825,12134,030.6,045.5,0.252,758.7,01.16,0.508
2015-10-11 00:54:00,1919E-3,5C000400,-0724,0825,12267,030.6,045.5,0.252,758.8,01.16,0.508
2015-10-11 00:55:00,1801E-3,5C000400,-0724,0826,12331,030.6,045.5,0.251,758.7,01.16,0.508
2015-10-11 00:56:00,1916E-3,5C000400,-0724,0825,12275,030.6,045.5,0.252,758.3,01.16,0.508
2015-10-11 00:57:00,1984E-3,5C000400,-0724,0826,12282,030.6,045.5,0.252,758.4,01.16,0.508
2015-10-11 00:58:00,1949E-3,5C000400,-0724,0826,12207,030.7,045.5,0.251,758.5,01.16,0.508
2015-10-11 00:59:00,1825E-3,5C000400,-0724,0826,12233,030.6,045.5,0.252,758.5,01.16,0.508
2015-10-11 01:00:00,1880E-3,5C000400,-0724,0827,12335,030.7,045.5,0.252,758.4,01.16,0.508
2015-10-11 01:01:00,1894E-3,5C000400,-0724,0826,12222,030.7,045.5,0.251,758.1,01.16,0.508
2015-10-11 01:02:00,1900E-3,5C000400,-0724,0826,11927,030.7,045.5,0.252,758.3,01.16,0.508
2015-10-11 01:03:00,1888E-3,5C000400,-0724,0825,12219,030.7,045.5,0.252,758.1,01.16,0.508
2015-10-11 01:04:00,1815E-3,5C000400,-0724,0826,12260,030.7,045.5,0.252,758.1,01.16,0.508
2015-10-11 01:05:00,1899E-3,5C000400,-0724,0826,12319,030.7,045.5,0.252,758.3,01.16,0.508
2015-10-11 01:06:00,1856E-3,5C000400,-0724,0825,12111,030.7,045.5,0.251,758.3,01.16,0.508
2015-10-11 01:07:00,1890E-3,5C000400,-0724,0826,12312,030.7,045.5,0.252,758.0,01.16,0.508
2015-10-11 01:08:00,1835E-3,5C000400,-0724,0826,12309,030.7,045.5,0.252,757.9,01.16,0.508
2015-10-11 01:09:00,1845E-3,5C000400,-0724,0826,12185,030.7,045.5,0.251,758.0,01.16,0.508
2015-10-11 01:10:00,1916E-3,5C000400,-0724,0826,12197,030.7,045.5,0.252,758.3,01.16,0.508
2015-10-11 01:11:00,1937E-3,5C000400,-0724,0826,12232,030.7,045.5,0.252,758.0,01.16,0.508
2015-10-11 01:12:00,1963E-3,5C000400,-0724,0825,12122,030.7,045.5,0.251,758.2,01.16,0.508
2015-10-11 01:13:00,1925E-3,5C000400,-0724,0826,12297,030.7,045.5,0.252,758.3,01.16,0.508
2015-10-11 01:14:00,1871E-3,5C000400,-0724,0826,12337,030.7,045.5,0.251,758.1,01.16,0.508
2015-10-11 01:15:00,1944E-3,5C000400,-0724,0825,12221,030.7,045.5,0.251,758.1,01.16,0.508
2015-10-11 01:16:00,1966E-3,5C000400,-0724,0826,12273,030.7,045.5,0.252,758.2,01.16,0.508
2015-10-11 01:17:00,1966E-3,5C000400,-0724,0825,12255,030.7,045.5,0.251,758.1,01.16,0.508
2015-10-11 01:18:00,1841E-3,5C000400,-0724,0826,12311,030.7,045.5,0.252,758.1,01.16,0.508
2015-10-11 01:19:00,1935E-3,5C000400,-0724,0827,12311,030.7,045.5,0.252,758.3,01.16,0.508
2015-10-11 01:20:00,1871E-3,5C000400,-0724,0826,12166,030.7,045.5,0.251,758.1,01.16,0.508
2015-10-11 01:21:00,1961E-3,5C000400,-0724,0826,12167,030.7,045.5,0.252,758.1,01.16,0.508
2015-10-11 01:22:00,1872E-3,5C000400,-0724,0826,12200,030.8,045.5,0.251,758.1,01.16,0.508
2015-10-11 01:23:00,1923E-3,5C000400,-0724,0826,12220,030.7,045.5,0.251,757.7,01.16,0.508
2015-10-11 01:24:00,1960E-3,5C000400,-0724,0826,12257,030.7,045.5,0.252,758.2,01.16,0.508
2015-10-11 01:25:00,1850E-3,5C000400,-0724,0827,12257,030.7,045.5,0.251,758.0,01.16,0.508
2015-10-11 01:26:00,1808E-3,5C000400,-0724,0825,12157,030.7,045.5,0.252,757.9,01.16,0.508
2015-10-11 01:27:00,1894E-3,5C000400,-0724,0827,12155,030.7,045.5,0.252,758.1,01.16,0.508
2015-10-11 01:28:00,1771E-3,5C000400,-0724,0826,12237,030.7,045.5,0.251,757.7,01.16,0.508
2015-10-11 01:29:00,1999E-3,5C000400,-0724,0826,12159,030.7,045.5,0.252,758.2,01.16,0.508
2015-10-11 01:30:00,1801E-3,5C000400,-0724,0826,12227,030.7,045.5,0.251,757.9,01.16,0.508
2015-10-11 01:31:00,1935E-3,5C000400,-0724,0826,12354,030.7,045.5,0.251,757.7,01.16,0.508
2015-10-11 01:32:00,1973E-3,5C000400,-0724,0827,12282,030.7,045.5,0.251,757.8,01.16,0.508
2015-10-11 01:33:00,1967E-3,5C000400,-0724,0826,12127,030.7,045.5,0.251,757.8,01.16,0.508
2015-10-11 01:34:00,1837E-3,5C000400,-0724,0825,12271,030.8,045.5,0.251,757.4,01.16,0.508
2015-10-11 01:35:00,2008E-3,5C000400,-0724,0826,12262,030.7,045.5,0.251,757.4,01.16,0.508
2015-10-11 01:36:00,1855E-3,5C000400,-0724,0826,12300,030.8,045.5,0.251,757.3,01.16,0.508
2015-10-11 01:37:00,1743E-3,5C000400,-0724,0826,12293,030.7,045.5,0.252,757.7,01.16,0.508
2015-10-11 01:38:00,1857E-3,5C000400,-0724,0826,12248,030.7,045.5,0.251,757.5,01.16,0.508
2015-10-11 01:39:00,1869E-3,5C000400,-0724,0826,12197,030.7,045.5,0.251,757.3,01.16,0.508
2015-10-11 01:40:00,2039E-3,5C000400,-0724,0826,12351,030.7,045.5,0.251,757.4,01.16,0.508
2015-10-11 01:41:00,1970E-3,5C000400,-0724,0826,12132,030.8,045.5,0.251,757.3,01.16,0.508
2015-10-11 01:42:00,2036E-3,5C000400,-0724,0826,12070,030.8,045.5,0.252,757.6,01.16,0.508
2015-10-11 01:43:00,1875E-3,5C000400,-0724,0827,12249,030.7,045.5,0.251,757.2,01.16,0.508
2015-10-11 01:44:00,2006E-3,5C000400,-0724,0826,12296,030.7,045.5,0.251,757.4,01.16,0.508
2015-10-11 01:45:00,1879E-3,5C000400,-0724,0826,12206,030.7,045.5,0.251,757.3,01.16,0.508
2015-10-11 01:46:00,1979E-3,5C000400,-0724,0825,12207,030.7,045.5,0.251,757.1,01.16,0.508
2015-10-11 01:47:00,1891E-3,5C000400,-0724,0826,12194,030.7,045.5,0.252,757.5,01.16,0.508
2015-10-11 01:48:00,2095E-3,5C000400,-0724,0826,12351,030.7,045.5,0.251,757.7,01.16,0.508
2015-10-11 01:49:00,1920E-3,5C000400,-0724,0826,12185,030.7,045.5,0.251,757.8,01.16,0.508
2015-10-11 01:50:00,1867E-3,5C000400,-0724,0826,12157,030.7,045.5,0.251,757.5,01.16,0.508
2015-10-11 01:51:00,1915E-3,5C000400,-0724,0826,12246,030.7,045.5,0.251,757.7,01.16,0.508
2015-10-11 01:52:00,2017E-3,5C000400,-0724,0826,12250,030.7,045.5,0.251,757.4,01.16,0.508
2015-10-11 01:53:00,1888E-3,5C000400,-0724,0826,12231,030.7,045.5,0.252,756.7,01.16,0.508
2015-10-11 01:54:00,1849E-3,5C000400,-0724,0826,12286,030.7,045.5,0.251,757.1,01.16,0.508
2015-10-11 01:55:00,1904E-3,5C000400,-0724,0826,12366,030.7,045.5,0.252,757.6,01.16,0.508
2015-10-11 01:56:00,1890E-3,5C000400,-0724,0825,12179,030.7,045.5,0.251,757.5,01.16,0.508
2015-10-11 01:57:00,1790E-3,5C000400,-0724,0826,12207,030.7,045.5,0.252,757.3,01.16,0.508
2015-10-11 01:58:00,1826E-3,5C000400,-0724,0826,12086,030.7,045.5,0.251,757.3,01.16,0.508
2015-10-11 01:59:00,1869E-3,5C000400,-0724,0825,12242,030.7,045.5,0.252,757.6,01.16,0.508
2015-10-11 02:00:00,1836E-3,5C000400,-0724,0825,12354,030.7,045.5,0.251,757.2,01.16,0.508
2015-10-11 02:01:00,1919E-3,5C000400,-0724,0826,12247,030.7,045.5,0.251,757.3,01.16,0.508
2015-10-11 02:02:00,1929E-3,5C000400,-0724,0826,12223,030.7,045.5,0.252,757.2,01.16,0.508
2015-10-11 02:03:00,1814E-3,5C000400,-0724,0826,12306,030.6,045.5,0.251,757.1,01.16,0.508
2015-10-11 02:04:00,1797E-3,5C000400,-0724,0826,12257,030.7,045.5,0.252,757.0,01.16,0.508
2015-10-11 02:05:00,1898E-3,5C000400,-0724,0825,12215,030.6,045.5,0.251,757.4,01.16,0.508
2015-10-11 02:06:00,1975E-3,5C000400,-0724,0825,12139,030.7,045.5,0.251,757.4,01.16,0.508
2015-10-11 02:07:00,1810E-3,5C000400,-0724,0826,12302,030.6,045.5,0.252,757.4,01.16,0.508
2015-10-11 02:08:00,1814E-3,5C000400,-0724,0826,12240,030.6,045.5,0.251,757.4,01.16,0.508
2015-10-11 02:09:00,1903E-3,5C000400,-0724,0826,12282,030.6,045.5,0.252,757.7,01.16,0.508
2015-10-11 02:10:00,1903E-3,5C000400,-0724,0825,12142,030.6,045.5,0.252,757.8,01.16,0.508
2015-10-11 02:11:00,1870E-3,5C000400,-0724,0825,12194,030.6,045.5,0.251,757.4,01.16,0.508
2015-10-11 02:12:00,1982E-3,5C000400,-0724,0826,12106,030.6,045.5,0.252,757.6,01.16,0.508
2015-10-11 02:13:00,1861E-3,5C000400,-0724,0826,12216,030.6,045.5,0.252,757.1,01.16,0.508
2015-10-11 02:14:00,1849E-3,5C000400,-0724,0826,12229,030.6,045.5,0.251,757.3,01.16,0.508
2015-10-11 02:15:00,2002E-3,5C000400,-0724,0826,12306,030.6,045.5,0.252,757.2,01.16,0.508
2015-10-11 02:16:00,1996E-3,5C000400,-0724,0826,12306,030.6,045.5,0.251,756.9,01.16,0.508
2015-10-11 02:17:00,1859E-3,5C000400,-0724,0825,12222,030.6,045.5,0.251,756.7,01.16,0.508
2015-10-11 02:18:00,1882E-3,5C000400,-0724,0826,12079,030.6,045.5,0.252,757.1,01.16,0.508
2015-10-11 02:19:00,1844E-3,5C000400,-0724,0825,12335,030.6,045.5,0.251,756.7,01.16,0.508
2015-10-11 02:20:00,1896E-3,5C000400,-0724,0825,12422,030.6,045.5,0.252,756.4,01.16,0.508
2015-10-11 02:21:00,2006E-3,5C000400,-0724,0826,12144,030.6,045.5,0.251,757.2,01.16,0.508
2015-10-11 02:22:00,2001E-3,5C000400,-0724,0826,12325,030.6,045.5,0.252,756.5,01.16,0.508
2015-10-11 02:23:00,1726E-3,5C000400,-0724,0826,12298,030.6,045.5,0.252,757.3,01.16,0.508
2015-10-11 02:24:00,1841E-3,5C000400,-0724,0825,12190,030.6,045.5,0.251,756.9,01.16,0.508
2015-10-11 02:25:00,1918E-3,5C000400,-0724,0826,12236,030.6,045.5,0.252,756.6,01.16,0.508
2015-10-11 02:26:00,1905E-3,5C000400,-0724,0826,12222,030.6,045.5,0.252,756.9,01.16,0.508
2015-10-11 02:27:00,1916E-3,5C000400,-0724,0824,12100,030.6,045.5,0.251,756.9,01.16,0.508
2015-10-11 02:28:00,1935E-3,5C000400,-0724,0826,12245,030.6,045.5,0.252,756.8,01.16,0.508
2015-10-11 02:29:00,1961E-3,5C000400,-0724,0826,12311,030.6,045.5,0.252,757.2,01.16,0.508
2015-10-11 02:30:00,1876E-3,5C000400,-0724,0826,12235,030.6,045.5,0.252,757.0,01.16,0.508
2015-10-11 02:31:00,1838E-3,5C000400,-0724,0825,12174,030.5,045.5,0.252,757.3,01.16,0.508
2015-10-11 02:32:00,2011E-3,5C000400,-0724,0826,12370,030.5,045.5,0.251,757.4,01.16,0.508
2015-10-11 02:33:00,1937E-3,5C000400,-0724,0826,12123,030.6,045.5,0.252,756.8,01.16,0.508
2015-10-11 02:34:00,1917E-3,5C000400,-0724,0825,12200,030.5,045.5,0.252,756.8,01.16,0.508
2015-10-11 02:35:00,1930E-3,5C000400,-0724,0827,12239,030.6,045.5,0.251,757.2,01.16,0.508
2015-10-11 02:36:00,1884E-3,5C000400,-0724,0826,12203,030.5,045.5,0.252,757.1,01.16,0.508
2015-10-11 02:37:00,1955E-3,5C000400,-0724,0826,12193,030.5,045.5,0.252,756.8,01.16,0.508
2015-10-11 02:38:00,1898E-3,5C000400,-0724,0826,12099,030.5,045.5,0.251,757.1,01.16,0.508
2015-10-11 02:39:00,1895E-3,5C000400,-0724,0826,12198,030.5,045.5,0.252,757.1,01.16,0.508
2015-10-11 02:40:00,2053E-3,5C000400,-0724,0826,12320,030.5,045.5,0.252,757.1,01.16,0.508
2015-10-11 02:41:00,1846E-3,5C000400,-0724,0826,12205,030.5,045.5,0.251,756.8,01.16,0.508
2015-10-11 02:42:00,1885E-3,5C000400,-0724,0825,12205,030.5,045.5,0.252,757.0,01.16,0.508
2015-10-11 02:43:00,2007E-3,5C000400,-0724,0825,12177,030.5,045.5,0.252,756.9,01.16,0.508
2015-10-11 02:44:00,1898E-3,5C000400,-0724,0826,12372,030.5,045.5,0.251,757.3,01.16,0.508
2015-10-11 02:45:00,1954E-3,5C000400,-0724,0826,12229,030.5,045.5,0.252,756.9,01.16,0.508
2015-10-11 02:46:00,1973E-3,5C000400,-0724,0825,12211,030.5,045.5,0.252,757.1,01.16,0.508
2015-10-11 02:47:00,2049E-3,5C000400,-0724,0826,12109,030.5,045.5,0.252,756.9,01.16,0.508
2015-10-11 02:48:00,1918E-3,5C000400,-0724,0825,12287,030.5,045.5,0.252,757.2,01.16,0.508
2015-10-11 02:49:00,1938E-3,5C000400,-0724,0825,12260,030.4,045.5,0.252,756.6,01.16,0.508
2015-10-11 02:50:00,1893E-3,5C000400,-0724,0826,12230,030.4,045.5,0.252,757.1,01.16,0.508
2015-10-11 02:51:00,1863E-3,5C000400,-0724,0826,12213,030.4,045.5,0.252,757.0,01.16,0.508
2015-10-11 02:52:00,1994E-3,5C000400,-0724,0826,12273,030.4,045.5,0.252,757.2,01.16,0.508
2015-10-11 02:53:00,1984E-3,5C000400,-0724,0826,12082,030.4,045.5,0.252,756.8,01.16,0.508
2015-10-11 02:54:00,1930E-3,5C000400,-0724,0826,12199,030.4,045.5,0.252,756.4,01.16,0.508
2015-10-11 02:55:00,1879E-3,5C000400,-0724,0826,12355,030.4,045.5,0.252,757.0,01.16,0.508
2015-10-11 02:56:00,1950E-3,5C000400,-0724,0825,12239,030.4,045.5,0.252,757.1,01.16,0.508
2015-10-11 02:57:00,1876E-3,5C000400,-0724,0825,12228,030.4,045.5,0.252,757.0,01.16,0.508
2015-10-11 02:58:00,1956E-3,5C000400,-0724,0826,12352,030.4,045.5,0.252,757.0,01.16,0.508
2015-10-11 02:59:00,1816E-3,5C000400,-0724,0825,12247,030.4,045.5,0.252,757.1,01.16,0.508
2015-10-11 03:00:00,1889E-3,5C000400,-0724,0825,12388,030.4,045.5,0.252,757.1,01.16,0.508
2015-10-11 03:01:00,1924E-3,5C000400,-0724,0825,12170,030.4,045.5,0.252,756.6,01.16,0.508
2015-10-11 03:02:00,1881E-3,5C000400,-0724,0825,12190,030.4,045.5,0.252,757.2,01.16,0.508
2015-10-11 03:03:00,1999E-3,5C000400,-0724,0825,12218,030.4,045.5,0.251,756.8,01.16,0.508
2015-10-11 03:04:00,1921E-3,5C000400,-0724,0826,12101,030.4,045.5,0.252,757.2,01.16,0.508
2015-10-11 03:05:00,1892E-3,5C000400,-0724,0826,12295,030.4,045.5,0.252,757.4,01.16,0.508
2015-10-11 03:06:00,1911E-3,5C000400,-0724,0826,12235,030.4,045.5,0.252,757.3,01.16,0.508
2015-10-11 03:07:00,1951E-3,5C000400,-0724,0825,12194,030.4,045.5,0.252,756.8,01.16,0.508
2015-10-11 03:08:00,1912E-3,5C000400,-0724,0826,12279,030.4,045.5,0.252,757.3,01.16,0.508
2015-10-11 03:09:00,1864E-3,5C000400,-0724,0825,12377,030.4,045.5,0.252,757.2,01.16,0.508
2015-10-11 03:10:00,1976E-3,5C000400,-0724,0825,12223,030.3,045.5,0.252,756.9,01.16,0.508
2015-10-11 03:11:00,1907E-3,5C000400,-0724,0826,12280,030.3,045.5,0.252,756.9,01.16,0.508
2015-10-11 03:12:00,1893E-3,5C000400,-0724,0826,12225,030.3,045.5,0.252,757.3,01.16,0.508
2015-10-11 03:13:00,1866E-3,5C000400,-0724,0825,12259,030.3,045.5,0.252,757.3,01.16,0.508
2015-10-11 03:14:00,1817E-3,5C000400,-0724,0826,12160,030.3,045.5,0.252,757.0,01.16,0.508
2015-10-11 03:15:00,1995E-3,5C000400,-0724,0826,12174,030.3,045.5,0.252,757.0,01.16,0.508
2015-10-11 03:16:00,1829E-3,5C000400,-0724,0826,12376,030.3,045.5,0.252,757.1,01.16,0.508
2015-10-11 03:17:00,1805E-3,5C000400,-0724,0826,12296,030.3,045.5,0.252,757.1,01.16,0.508
2015-10-11 03:18:00,1987E-3,5C000400,-0724,0826,12224,030.3,045.5,0.252,756.6,01.16,0.508
2015-10-11 03:19:00,1932E-3,5C000400,-0724,0826,12184,030.3,045.5,0.252,757.0,01.16,0.508
2015-10-11 03:20:00,1833E-3,5C000400,-0724,0826,12294,030.3,045.5,0.252,757.0,01.16,0.508
2015-10-11 03:21:00,1854E-3,5C000400,-0724,0826,12268,030.3,045.5,0.252,757.0,01.16,0.508
2015-10-11 03:22:00,1842E-3,5C000400,-0724,0825,12283,030.3,045.5,0.252,756.8,01.16,0.508
2015-10-11 03:23:00,1914E-3,5C000400,-0724,0826,12318,030.3,045.5,0.252,756.9,01.16,0.508
2015-10-11 03:24:00,1913E-3,5C000400,-0724,0826,12227,030.3,045.5,0.252,757.6,01.16,0.508
2015-10-11 03:25:00,1884E-3,5C000400,-0724,0825,12324,030.3,045.5,0.252,757.1,01.16,0.508
2015-10-11 03:26:00,1854E-3,5C000400,-0724,0826,12228,030.2,045.5,0.252,757.3,01.16,0.508
2015-10-11 03:27:00,1939E-3,5C000400,-0724,0826,12149,030.2,045.5,0.252,757.2,01.16,0.508
2015-10-11 03:28:00,1943E-3,5C000400,-0724,0825,12416,030.2,045.5,0.252,757.5,01.16,0.508
2015-10-11 03:29:00,1954E-3,5C000400,-0724,0826,12354,030.2,045.5,0.252,757.4,01.16,0.508
2015-10-11 03:30:00,1842E-3,5C000400,-0724,0826,12020,030.2,045.5,0.252,757.1,01.16,0.508
2015-10-11 03:31:00,1997E-3,5C000400,-0724,0826,12144,030.2,045.5,0.252,756.9,01.16,0.508
2015-10-11 03:32:00,1793E-3,5C000400,-0724,0826,12057,030.2,045.5,0.252,757.3,01.16,0.508
2015-10-11 03:33:00,1927E-3,5C000400,-0724,0826,12246,030.2,045.5,0.253,756.9,01.16,0.508
2015-10-11 03:34:00,1945E-3,5C000400,-0724,0826,12213,030.2,045.5,0.252,757.4,01.16,0.508
2015-10-11 03:35:00,1961E-3,5C000400,-0724,0826,12231,030.2,045.5,0.252,757.1,01.16,0.508
2015-10-11 03:36:00,1874E-3,5C000400,-0724,0826,12175,030.2,045.5,0.252,757.4,01.16,0.508
2015-10-11 03:37:00,1873E-3,5C000400,-0724,0826,12303,030.2,045.5,0.252,757.1,01.16,0.508
2015-10-11 03:38:00,1993E-3,5C000400,-0724,0827,12252,030.2,045.5,0.252,757.2,01.16,0.508
2015-10-11 03:39:00,1915E-3,5C000400,-0724,0825,12320,030.2,045.5,0.252,757.4,01.16,0.508
2015-10-11 03:40:00,1907E-3,5C000400,-0724,0825,12176,030.2,045.5,0.253,757.4,01.16,0.508
2015-10-11 03:41:00,1745E-3,5C000400,-0724,0827,12229,030.2,045.5,0.252,757.0,01.16,0.508
2015-10-11 03:42:00,1794E-3,5C000400,-0724,0826,12142,030.2,045.5,0.252,757.4,01.16,0.508
2015-10-11 03:43:00,1844E-3,5C000400,-0724,0826,12324,030.2,045.5,0.252,757.6,01.16,0.508
2015-10-11 03:44:00,1972E-3,5C000400,-0724,0826,12263,030.2,045.5,0.252,757.5,01.16,0.508
2015-10-11 03:45:00,1806E-3,5C000400,-0724,0826,12290,030.2,045.5,0.252,757.3,01.16,0.508
2015-10-11 03:46:00,1822E-3,5C000400,-0724,0826,12118,030.2,045.5,0.252,757.5,01.16,0.508
2015-10-11 03:47:00,1895E-3,5C000400,-0724,0825,12122,030.2,045.5,0.252,757.4,01.16,0.508
2015-10-11 03:48:00,1968E-3,5C000400,-0724,0827,12231,030.2,045.5,0.253,757.8,01.16,0.508
2015-10-11 03:49:00,2022E-3,5C000400,-0724,0826,12239,030.2,045.5,0.252,757.2,01.16,0.508
2015-10-11 03:50:00,1826E-3,5C000400,-0724,0826,12317,030.2,045.5,0.252,757.3,01.16,0.508
2015-10-11 03:51:00,1900E-3,5C000400,-0724,0826,12264,030.2,045.5,0.253,757.6,01.16,0.508
2015-10-11 03:52:00,1867E-3,5C000400,-0724,0826,12302,030.2,045.5,0.252,757.2,01.16,0.508
2015-10-11 03:53:00,1917E-3,5C000400,-0724,0827,12190,030.1,045.5,0.252,757.3,01.16,0.508
2015-10-11 03:54:00,1794E-3,5C000400,-0724,0827,12345,030.1,045.5,0.252,757.4,01.16,0.508
2015-10-11 03:55:00,2006E-3,5C000400,-0724,0826,12134,030.1,045.5,0.252,757.4,01.16,0.508
2015-10-11 03:56:00,1992E-3,5C000400,-0724,0826,12234,030.1,045.5,0.253,757.4,01.16,0.508
2015-10-11 03:57:00,1863E-3,5C000400,-0724,0826,12348,030.1,045.5,0.252,757.4,01.16,0.508
2015-10-11 03:58:00,1888E-3,5C000400,-0724,0826,12224,030.1,045.5,0.253,757.0,01.16,0.508
2015-10-11 03:59:00,1733E-3,5C000400,-0724,0826,12213,030.1,045.5,0.253,757.3,01.16,0.508
2015-10-11 04:00:00,1887E-3,5C000400,-0724,0826,12380,030.1,045.5,0.252,757.3,01.16,0.508
2015-10-11 04:01:00,1966E-3,5C000400,-0724,0827,12134,030.1,045.5,0.252,757.1,01.16,0.508
2015-10-11 04:02:00,1870E-3,5C000400,-0724,0825,12188,030.1,045.5,0.253,757.2,01.16,0.508
2015-10-11 04:03:00,1895E-3,5C000400,-0724,0826,12150,030.1,045.5,0.252,757.3,01.16,0.508
2015-10-11 04:04:00,1873E-3,5C000400,-0724,0826,12062,030.1,045.5,0.252,757.4,01.16,0.508
2015-10-11 04:05:00,1914E-3,5C000400,-0724,0826,12369,030.1,045.5,0.253,757.3,01.16,0.508
2015-10-11 04:06:00,1958E-3,5C000400,-0724,0827,12315,030.1,045.5,0.253,757.0,01.16,0.508
2015-10-11 04:07:00,1861E-3,5C000400,-0724,0826,12240,030.2,045.5,0.253,756.9,01.16,0.508
2015-10-11 04:08:00,2003E-3,5C000400,-0724,0826,12108,030.1,045.5,0.252,757.2,01.16,0.508
2015-10-11 04:09:00,1871E-3,5C000400,-0724,0826,12187,030.1,045.5,0.253,757.2,01.16,0.508
2015-10-11 04:10:00,1814E-3,5C000400,-0724,0826,12285,030.1,045.5,0.253,757.1,01.16,0.508
2015-10-11 04:11:00,1916E-3,5C000400,-0724,0825,12364,030.1,045.5,0.252,757.4,01.16,0.508
2015-10-11 04:12:00,1902E-3,5C000400,-0724,0825,12122,030.1,045.5,0.252,757.1,01.16,0.508
2015-10-11 04:13:00,1862E-3,5C000400,-0724,0825,12277,030.1,045.5,0.252,757.4,01.16,0.508
2015-10-11 04:14:00,1731E-3,5C000400,-0724,0825,12274,030.1,045.5,0.253,757.4,01.16,0.508
2015-10-11 04:15:00,1996E-3,5C000400,-0724,0825,12105,030.1,045.5,0.252,757.2,01.16,0.508
2015-10-11 04:16:00,1790E-3,5C000400,-0724,0826,12220,030.1,045.5,0.253,757.4,01.16,0.508
2015-10-11 04:17:00,1815E-3,5C000400,-0724,0826,12186,030.1,045.5,0.253,757.0,01.16,0.508
2015-10-11 04:18:00,1793E-3,5C000400,-0724,0825,12144,030.1,045.5,0.253,757.4,01.16,0.508
2015-10-11 04:19:00,1956E-3,5C000400,-0724,0826,12253,030.1,045.5,0.252,757.0,01.16,0.508
2015-10-11 04:20:00,1675E-3,5C000400,-0724,0825,12342,030.1,045.5,0.253,757.2,01.16,0.508